This demonstration page uses our WeatherBlox Daily Observations layout. Learn more.

Left ArrowRight Arrow

Hourly Observations for April 14, 2022

Temp ( °F °C ) Dew Point ( °F °C ) Humidity (%) Winds ( mph kmh ) Pressure ( in mb ) Visibility ( mi km ) Precip ( " mm )
12:53 am 00:53 Clear 29 -1.7 4 -15.6 34 34 WNW 12 19 29.98 1015 10 16 0.00 0.00
1:53 am 01:53 Clear 29 -1.7 5 -15 36 36 WNW 12 19 29.97 1015 10 16 0.00 0.00
2:53 am 02:53 Clear 28 -2.2 5 -15 37 37 W 10 17 29.97 1015 10 16 0.00 0.00
3:53 am 03:53 Clear 27 -2.8 6 -14.4 41 41 WNW 14 22 29.97 1015 10 16 0.00 0.00
4:53 am 04:53 Clear 26 -3.3 6 -14.4 42 42 WNW 13 20 29.98 1015 10 16 0.00 0.00
5:53 am 05:53 Clear 25 -3.9 6 -14.4 44 44 W 10 17 30.00 1016 10 16 0.00 0.00
6:53 am 06:53 Clear 25 -3.9 6 -14.4 44 44 W 12 19 30.01 1016 10 16 0.00 0.00
7:53 am 07:53 Sunny 26 -3.3 7 -13.9 44 44 W 13 20 30.03 1017 10 16 0.00 0.00
8:53 am 08:53 Sunny 32 0 5 -15 32 32 WNW 20 31 30.04 1017 10 16 0.00 0.00
9:53 am 09:53 Sunny 38 3.3 5 -15 25 25 WNW 22 35 30.04 1017 10 16 0.00 0.00
10:53 am 10:53 Sunny 43 6.1 5 -15 21 21 WNW 24 39 30.04 1017 10 16 0.00 0.00
11:53 am 11:53 Sunny 45 7.2 8 -13.3 22 22 W 20 31 30.01 1016 10 16 0.00 0.00
12:53 pm 12:53 Partly Cloudy 47 8.3 10 -12.2 22 22 W 17 28 30.01 1016 10 16 0.00 0.00
1:53 pm 13:53 Partly Cloudy 50 10 10 -12.2 20 20 W 18 30 29.98 1015 10 16 0.00 0.00
2:53 pm 14:53 Sunny 53 11.7 10 -12.2 18 18 W 23 37 29.95 1014 10 16 0.00 0.00
3:53 pm 15:53 Sunny 56 13.3 10 -12.2 16 16 W 24 39 29.93 1013 10 16 0.00 0.00
4:53 pm 16:53 Mostly Sunny 58 14.4 9 -12.8 14 14 WNW 20 31 29.91 1013 10 16 0.00 0.00
5:53 pm 17:53 Sunny 58 14.4 10 -12.2 15 15 NW 21 33 29.90 1012 10 16 0.00 0.00
6:53 pm 18:53 Sunny 56 13.3 10 -12.2 16 16 NW 16 26 29.90 1012 10 16 0.00 0.00
7:53 pm 19:53 Mostly Sunny 51 10.6 12 -11.1 21 21 N 8 13 29.91 1013 10 16 0.00 0.00
8:53 pm 20:53 Mostly Cloudy 47 8.3 11 -11.7 23 23 N 7 11 29.91 1013 10 16 0.00 0.00
9:53 pm 21:53 Mostly Clear 41 5 11 -11.7 29 29 ENE 5 7 29.92 1013 9 14 0.00 0.00
10:53 pm 22:53 Clear 37 2.8 11 -11.7 34 34 N 10 17 29.93 1014 10 16 0.00 0.00
11:53 pm 23:53 Clear 39 3.9 11 -11.7 31 31 NE 6 9 29.94 1014 8 13 0.00 0.00

Powered by AerisWeather